Simultaneous Nadir Overpasses (SNOs) Predictions

Prediction of SNOs between AQUA and METOP-B Satellite Orbit:

Table of predicted SNOs for the next 14.0 days since TLE Epoch: 3/17/2018
Index Date (AQUA) Time (AQUA) Lat,Lon (AQUA) SZA (AQUA ) Date (METOP-B) Time (METOP-B) Lat,Lon (METOP-B) SZA (METOP-B ) Distance(km) Time Diff (sec)
1 03/18/2018 15:25:27 73.85, -57.00 74.71 03/18/2018 15:24:34 73.84, -57.07 74.71 2.30 53
2 03/18/2018 16:14:55 -73.94, 110.44 105.21 03/18/2018 16:15:13 -73.96, 110.54 105.20 3.65 18
3 03/18/2018 17:04:35 74.62, -83.53 75.52 03/18/2018 17:05:40 74.61, -80.47 75.38 90.08 65
4 03/21/2018 10:59:42 73.84, 9.46 73.58 03/21/2018 10:58:55 73.86, 9.40 73.61 3.09 47
5 03/21/2018 11:49:10 -73.93, 176.90 106.34 03/21/2018 11:49:35 -73.94, 176.89 106.34 0.71 25
6 03/24/2018 06:33:58 73.89, 75.78 72.52 03/24/2018 06:33:16 73.88, 75.85 72.51 2.42 42
7 03/24/2018 07:23:25 -73.93,-116.65 107.46 03/24/2018 07:23:56 -73.96,-116.64 107.44 3.47 31
8 03/27/2018 02:08:12 73.91, 142.20 71.42 03/27/2018 02:07:36 73.90, 142.30 71.42 3.09 36
9 03/27/2018 02:57:39 -73.94, -50.23 108.57 03/27/2018 02:58:17 -73.93, -50.31 108.58 2.32 38
10 03/29/2018 21:42:26 73.87,-151.29 70.28 03/29/2018 21:41:58 73.87,-151.38 70.28 2.94 28
11 03/29/2018 22:31:54 -73.96, 16.16 109.65 03/29/2018 22:32:38 -73.95, 16.14 109.66 1.14 44




NCC Satellite Simultaneous Nadir Overpasses (SNOs) Prediction Service
